Regional Weather Roundup
Issued by NWS

Home | Current Version | Previous Version | Graphics & Text | Print | Product List | Glossary On
Versions: 1 2 3 4 5 6 7 8 9 10 11 12 13 14 15 16 17 18 19 20 21 22 23 24 25 26 27 28 29 30 31 32 33 34 35 36 37 38 39 40 41 42 43 44 45 46 47 48 49 50
000
ASUS43 KLOT 202302
RWRIL

ILLINOIS REGIONAL WEATHER ROUNDUP
NATIONAL WEATHER SERVICE CHICAGO/ROMEOVILLE IL
600 PM CDT MON APR 20 2015

NOTE: "FAIR" INDICATES FEW OR NO CLOUDS BELOW 12,000 FEET WITH NO
SIGNIFICANT WEATHER AND/OR OBSTRUCTIONS TO VISIBILITY.

* THESE STATIONS ARE NOT UNDER NWS QUALITY CONTROL. THEY ALSO MAY NOT
  REPORT WEATHER SUCH AS PRECIPITATION OR FOG.

ILZ001-002-007-009-015-016-024-210000-
NORTHWEST ILLINOIS

CITY           SKY/WX    TMP DP  RH WIND       PRES   REMARKS
MOLINE         CLOUDY    49  32  52 W21G35    29.64R
STERLING*      MOSUNNY   48  30  49 W25G35    29.61R
$$

ILZ003-004-008-010-011-017-018-210000-
NORTH CENTRAL ILLINOIS

CITY           SKY/WX    TMP DP  RH WIND       PRES   REMARKS
ROCKFORD       CLOUDY    46  31  55 W20G28    29.58R
$$

ILZ005-006-012>014-019>023-210000-
NORTHEAST ILLINOIS

CITY           SKY/WX    TMP DP  RH WIND       PRES   REMARKS
CHICAGO-OHARE  CLOUDY    46  33  60 W25G31    29.55R
CHICAGO-MIDWAY CLOUDY    49  33  54 W23G29    29.56R
AURORA         CLOUDY    48  33  56 W24G35    29.58R
WAUKEGAN       CLOUDY    44  33  65 W9G24     29.51R
DUPAGE AIRPORT CLOUDY    46  33  60 W26       29.57R
WHEELING       CLOUDY    46  31  55 W17G31    29.55R
NORTHERLY ISL    N/A     48  31  52 W21         N/A
$$

LMZ740>746-210000-
SOUTHERN LAKE MICHIGAN

STATION/POSITION SKY/WX   TEMP    WIND        PRES    VSBY  WAVE
                          AIR SEA DIR/SP/G                  HT/PER
                          (F)     (DEG/KT/KT) (MB)    (MI)  (FT/S)
HARRISON CRIB              46     260/ 25/ 30   N/A
BURNHAM HARBOR             47     270/ 17/ 22   N/A
CALUMET HARBOR             48     250/ 11/ 22   N/A
BURNS HARBOR               48     250/ 26     1001.0R
MICHIGAN CITY              46     230/ 26/ 29   N/A
MICHIGAN CITY 6N           46 44  270/ 17/ 25   N/A           6/ 5
$$

ILZ025>027-034>036-040-047-049-050-058-095>099-210000-
WEST-CENTRAL ILLINOIS

CITY           SKY/WX    TMP DP  RH WIND       PRES   REMARKS
QUINCY         CLOUDY    53  32  44 W15       29.73S
$$

ILZ028>032-037-038-041>044-048-051>054-059>061-210000-
CENTRAL ILLINOIS

CITY           SKY/WX    TMP DP  RH WIND       PRES   REMARKS
DECATUR        CLOUDY    50  36  58 W15G25    29.72R
PEORIA         CLOUDY    51  32  48 W16G23    29.68R
SPRINGFIELD    CLOUDY    52  34  50 W17G24    29.73R
TAYLORVILLE    NOT AVBL
$$

ILZ033-039-045-046-055>057-062-063-210000-
EAST-CENTRAL ILLINOIS

CITY           SKY/WX    TMP DP  RH WIND       PRES   REMARKS
CHAMPAIGN      CLOUDY    49  37  63 W22G30    29.70R
MATTOON        CLOUDY    50  35  56 W22G29    29.72R
$$

ILZ079-100>102-210000-
SOUTHWEST ILLINOIS

CITY           SKY/WX    TMP DP  RH WIND       PRES   REMARKS
ALTON          PTSUNNY   54  28  37 W15G23    29.78R
BELLEVILLE     CLOUDY    55  33  43 NW16G24   29.77R
CAHOKIA*       CLOUDY    56  32  40 W15       29.79R
$$

ILZ064>066-069>071-074>076-080>082-084>086-088>090-092>094-210000-
SOUTH-CENTRAL ILLINOIS

CITY           SKY/WX    TMP DP  RH WIND       PRES   REMARKS
CARBONDALE     PTSUNNY   59  31  34 W12       29.78R
MARION         PTSUNNY   59  34  38 NW12      29.79R
MT. VERNON     CLOUDY    55  34  44 W10G16    29.78R
$$

ILZ067-068-072-073-078-083-087-091-210000-
SOUTHEAST ILLINOIS

CITY           SKY/WX    TMP DP  RH WIND       PRES   REMARKS
LAWRENCEVILLE  CLOUDY    54  37  52 W14G22    29.75R
$$

ABBREVIATIONS USED IN REMARKS
   TC - TEMPERATURE IN CELSIUS
  WCI - WIND CHILL INDEX
   HX - HEAT INDEX
  VSB - VISIBILITY
$$



USA.gov is the U.S. government's official web portal to all federal, state and local government web resources and services.